When you browse on this site, cookies collect data to enhance your experience and personalize the content and advertising you see.
Visit our Privacy Policy to learn more. By continuing to use the site, you agree to this use of cookies and data.
  • En España
  • Lista de países
  • Para 7 días
  • Temperatura del agua
  • El tiempo en el mapa
  • Informadores
  • user-avatar
    Iniciar sesión

    Tiempo cada hora Alarba

    Hoy, 31 Marzo, Martes

    Tiempo Temperatura Precipitaciones Viento Presión Humedad
    00:00 -2°C° 0 mm 3 mps 680 mmHg 93%
    01:00 -2°C° 0.7 mm 3 mps 679 mmHg 94%
    02:00 -3°C° 0.7 mm 4 mps 679 mmHg 94%
    03:00 -4°C° 0.7 mm 4 mps 678 mmHg 94%
    04:00 -2°C° 0.2 mm 3 mps 678 mmHg 94%
    05:00 -2°C° 0.2 mm 3 mps 678 mmHg 94%
    06:00 -2°C° 0 mm 2 mps 678 mmHg 94%
    07:00 -1°C° 0.6 mm 2 mps 678 mmHg 95%
    08:00 -1°C° 0.6 mm 2 mps 678 mmHg 96%
    09:00 +1°C° 0.6 mm 2 mps 678 mmHg 98%
    10:00 0°C° 0.5 mm 3 mps 678 mmHg 97%
    11:00 +1°C° 0.5 mm 3 mps 679 mmHg 97%
    12:00 +1°C° 0 mm 4 mps 679 mmHg 96%
    13:00 +2°C° 1 mm 3 mps 679 mmHg 97%
    14:00 +2°C° 1 mm 3 mps 679 mmHg 97%
    15:00 +2°C° 1 mm 3 mps 678 mmHg 98%
    16:00 +3°C° 0.6 mm 3 mps 679 mmHg 98%
    17:00 +4°C° 0.6 mm 2 mps 679 mmHg 98%
    18:00 +4°C° 0.6 mm 2 mps 679 mmHg 98%
    19:00 +4°C° 0.2 mm 2 mps 679 mmHg 98%
    20:00 +3°C° 0.2 mm 3 mps 680 mmHg 98%
    21:00 +3°C° 0.2 mm 3 mps 680 mmHg 98%
    22:00 +4°C° 0.1 mm 2 mps 680 mmHg 98%
    23:00 +5°C° 0.1 mm 2 mps 680 mmHg 98%

    Mañana, 1 Abril, Miércoles

    Tiempo Temperatura Precipitaciones Viento Presión Humedad
    00:00 +5°C° 0.1 mm 2 mps 680 mmHg 98%
    01:00 +5°C° 0.9 mm 2 mps 680 mmHg 99%
    02:00 +5°C° 0.9 mm 2 mps 680 mmHg 99%
    03:00 +5°C° 0.9 mm 2 mps 679 mmHg 99%
    04:00 +6°C° 0.4 mm 1 mps 679 mmHg 99%
    05:00 +6°C° 0.4 mm 1 mps 679 mmHg 99%
    06:00 +6°C° 0.4 mm 1 mps 679 mmHg 99%
    07:00 +6°C° 0.4 mm 2 mps 680 mmHg 98%
    08:00 +6°C° 0.4 mm 2 mps 680 mmHg 97%
    09:00 +5°C° 0.4 mm 3 mps 680 mmHg 96%
    10:00 +7°C° 0.4 mm 2 mps 680 mmHg 95%
    11:00 +7°C° 0.4 mm 2 mps 680 mmHg 93%
    12:00 +7°C° 0.4 mm 2 mps 680 mmHg 92%
    13:00 +7°C° 0.4 mm 2 mps 680 mmHg 92%
    14:00 +7°C° 0.4 mm 2 mps 680 mmHg 92%
    15:00 +7°C° 0.4 mm 2 mps 680 mmHg 93%
    16:00 +7°C° 0.3 mm 2 mps 680 mmHg 93%
    17:00 +7°C° 0.3 mm 2 mps 680 mmHg 94%
    18:00 +8°C° 0.3 mm 1 mps 679 mmHg 95%
    19:00 +7°C° 0.1 mm 1 mps 680 mmHg 96%
    20:00 +7°C° 0.1 mm 1 mps 680 mmHg 96%
    21:00 +6°C° 0.1 mm 0 mps 680 mmHg 97%
    22:00 +7°C° 0.1 mm 1 mps 681 mmHg 97%
    23:00 +7°C° 0.1 mm 1 mps 681 mmHg 97%

    Pasado mañana, 2 Abril, Jueves

    Tiempo Temperatura Precipitaciones Viento Presión Humedad
    00:00 +7°C° 0.1 mm 1 mps 681 mmHg 98%
    01:00 +7°C° 0.1 mm 1 mps 680 mmHg 97%
    02:00 +7°C° 0.1 mm 1 mps 680 mmHg 97%
    03:00 +7°C° 0.1 mm 1 mps 680 mmHg 97%
    04:00 +7°C° 0.3 mm 1 mps 680 mmHg 97%
    05:00 +7°C° 0.3 mm 1 mps 680 mmHg 97%
    06:00 +7°C° 0.3 mm 1 mps 679 mmHg 97%
    07:00 +7°C° 0.1 mm 1 mps 680 mmHg 94%
    08:00 +7°C° 0.1 mm 1 mps 680 mmHg 92%
    09:00 +8°C° 0.1 mm 1 mps 680 mmHg 90%
    10:00 +7°C° 0.1 mm 2 mps 680 mmHg 86%
    11:00 +8°C° 0.1 mm 2 mps 680 mmHg 83%
    12:00 +8°C° 0.1 mm 3 mps 680 mmHg 79%
    13:00 +9°C° 0.2 mm 3 mps 680 mmHg 77%
    14:00 +9°C° 0.2 mm 3 mps 680 mmHg 74%
    15:00 +8°C° 0.2 mm 4 mps 680 mmHg 72%
    16:00 +8°C° 0.1 mm 4 mps 680 mmHg 72%
    17:00 +8°C° 0.1 mm 4 mps 680 mmHg 73%
    18:00 +8°C° 0.1 mm 5 mps 680 mmHg 73%
    19:00 +6°C° 0 mm 4 mps 681 mmHg 77%
    20:00 +5°C° 0 mm 4 mps 681 mmHg 81%
    21:00 +4°C° 0 mm 3 mps 682 mmHg 84%
    22:00 +4°C° 0 mm 3 mps 682 mmHg 85%
    23:00 +4°C° 0 mm 3 mps 682 mmHg 86%

    3 Abril, Viernes

    Tiempo Temperatura Precipitaciones Viento Presión Humedad
    00:00 +4°C° 0 mm 2 mps 682 mmHg 87%
    01:00 +4°C° 0 mm 2 mps 682 mmHg 88%
    02:00 +4°C° 0 mm 2 mps 682 mmHg 88%
    03:00 +5°C° 0 mm 1 mps 681 mmHg 88%
    04:00 +5°C° 0 mm 1 mps 682 mmHg 87%
    05:00 +5°C° 0 mm 1 mps 682 mmHg 87%
    06:00 +5°C° 0 mm 1 mps 682 mmHg 86%
    07:00 +5°C° 0 mm 1 mps 682 mmHg 83%
    08:00 +6°C° 0 mm 1 mps 682 mmHg 80%
    09:00 +7°C° 0 mm 1 mps 683 mmHg 77%
    10:00 +8°C° 0 mm 1 mps 683 mmHg 73%
    11:00 +9°C° 0 mm 1 mps 683 mmHg 69%
    12:00 +9°C° 0 mm 2 mps 683 mmHg 65%
    13:00 +11°C° 0 mm 1 mps 683 mmHg 62%
    14:00 +11°C° 0 mm 1 mps 683 mmHg 59%
    15:00 +12°C° 0 mm 1 mps 683 mmHg 57%
    16:00 +12°C° 0 mm 1 mps 683 mmHg 58%
    17:00 +12°C° 0 mm 1 mps 683 mmHg 59%
    18:00 +11°C° 0 mm 1 mps 683 mmHg 60%
    19:00 +10°C° 0 mm 1 mps 683 mmHg 64%
    20:00 +9°C° 0 mm 1 mps 683 mmHg 69%
    21:00 +8°C° 0 mm 1 mps 684 mmHg 73%
    22:00 +7°C° 0 mm 1 mps 684 mmHg 76%
    23:00 +7°C° 0 mm 1 mps 684 mmHg 79%

    4 Abril, Sábado

    Tiempo Temperatura Precipitaciones Viento Presión Humedad
    00:00 +7°C° 0 mm 1 mps 684 mmHg 82%
    01:00 +6°C° 0 mm 1 mps 684 mmHg 84%
    02:00 +6°C° 0 mm 1 mps 683 mmHg 86%
    03:00 +5°C° 0 mm 1 mps 683 mmHg 88%
    04:00 +5°C° 0 mm 1 mps 683 mmHg 88%
    05:00 +5°C° 0 mm 1 mps 683 mmHg 89%
    06:00 +5°C° 0 mm 1 mps 683 mmHg 89%
    07:00 +7°C° 0 mm 1 mps 684 mmHg 81%
    08:00 +8°C° 0 mm 2 mps 684 mmHg 73%
    09:00 +10°C° 0 mm 2 mps 684 mmHg 66%
    10:00 +12°C° 0 mm 3 mps 685 mmHg 58%
    11:00 +13°C° 0 mm 3 mps 685 mmHg 49%
    12:00 +15°C° 0 mm 4 mps 685 mmHg 41%
    13:00 +15°C° 0 mm 4 mps 685 mmHg 40%
    14:00 +16°C° 0 mm 5 mps 684 mmHg 39%
    15:00 +16°C° 0 mm 5 mps 684 mmHg 37%
    16:00 +15°C° 0 mm 5 mps 684 mmHg 43%
    17:00 +14°C° 0 mm 5 mps 684 mmHg 49%
    18:00 +13°C° 0 mm 6 mps 684 mmHg 55%
    19:00 +10°C° 0 mm 5 mps 684 mmHg 61%
    20:00 +9°C° 0 mm 5 mps 684 mmHg 67%
    21:00 +7°C° 0 mm 4 mps 685 mmHg 73%
    22:00 +7°C° 0 mm 4 mps 685 mmHg 76%
    23:00 +7°C° 0 mm 3 mps 685 mmHg 78%

    5 Abril, Domingo

    Tiempo Temperatura Precipitaciones Viento Presión Humedad
    00:00 +5°C° 0 mm 3 mps 685 mmHg 80%
    01:00 +5°C° 0 mm 3 mps 684 mmHg 81%
    02:00 +5°C° 0 mm 3 mps 684 mmHg 82%
    03:00 +5°C° 0 mm 3 mps 684 mmHg 83%
    04:00 +5°C° 0 mm 3 mps 684 mmHg 83%
    05:00 +5°C° 0 mm 3 mps 684 mmHg 82%
    06:00 +5°C° 0 mm 4 mps 684 mmHg 81%
    07:00 +6°C° 0 mm 4 mps 684 mmHg 79%
    08:00 +7°C° 0 mm 4 mps 684 mmHg 76%
    09:00 +7°C° 0 mm 4 mps 684 mmHg 74%
    10:00 +8°C° 0 mm 5 mps 684 mmHg 72%
    11:00 +9°C° 0 mm 5 mps 684 mmHg 69%
    12:00 +10°C° 0 mm 6 mps 684 mmHg 67%
    13:00 +10°C° 0.1 mm 5 mps 684 mmHg 68%
    14:00 +10°C° 0.1 mm 5 mps 683 mmHg 69%
    15:00 +10°C° 0.1 mm 5 mps 683 mmHg 70%
    16:00 +11°C° 0.4 mm 4 mps 683 mmHg 75%
    17:00 +10°C° 0.4 mm 4 mps 683 mmHg 80%
    18:00 +10°C° 0.4 mm 3 mps 683 mmHg 84%
    19:00 +9°C° 0.1 mm 3 mps 683 mmHg 85%
    20:00 +9°C° 0.1 mm 3 mps 683 mmHg 86%
    21:00 +9°C° 0.1 mm 3 mps 683 mmHg 87%
    22:00 +9°C° 0.4 mm 3 mps 683 mmHg 88%
    23:00 +9°C° 0.4 mm 3 mps 683 mmHg 88%
    Mostrar más